Terminal Aerodrome Forecast
Issued by NWS

Home | Current Version | Previous Version | Text Only | Print | Product List | Glossary On
Versions: 1 2 3 4 5 6 7 8 9 10 11 12 13 14 15 16 17 18 19 20 21 22 23 24 25 26 27 28 29 30 31 32 33 34 35 36 37 38 39 40 41 42 43
000
FTAK31 PAFA 011406 AAA
TAFAOM
TAF AMD
PAOM 011406Z 0114/0212 25017KT P6SM SCT009 OVC040
      TEMPO 0115/0116 5SM -RA BKN009
     FM011600 24010KT P6SM -SHRA OVC010
     FM020600 30009KT P6SM VCSH BKN040=

USA.gov is the U.S. government's official web portal to all federal, state and local government web resources and services.